Voltar ao catálogo

SCATHA

AtivoCiênciaMEO
NORAD 11256·PAYLOAD·🇺🇸 United States

Lançado Jan 30, 1979 de Cape Canaveral Space Force Station

Loading…

Próximas Passagens (próximas 24 horas)

TLE

AtualizadoSource: Space-Track

Época: Sep 14, 2026, 09:01 UTC

1 11256U 79007A   26257.37584009 -.00000059  00000-0  00000-0 0  9991
2 11256   9.4479 275.1832 1793970 143.0406 230.9006  1.01525903143365

Acompanhe SCATHA em tempo real com AllMySat

Download on the App Store